Tracking 25709 objects as of 24-May-2022
HD Live streaming from Space Station
objects crossing your sky now

SL-12 R/B(2)

Track SL-12 R/B(2) now!


NORAD ID: 28256
Int'l Code: 2004-010F
Perigee: 35,710.2 km
Apogee: 35,953.6 km
Inclination: 12.0 °
Period: 1,438.0 minutes
Semi major axis: 42202 km
RCS: 0.003 m2 (small)
Launch date: March 27, 2004
Source: Commonwealth of Independent States (former USSR) (CIS)
Launch site: TYURATAM MISSILE AND SPACE COMPLEX (TTMTR)

Note: This is a ROCKET BODY
aabbcc
Your satellite tracking list
Your tracking list is empty




NASA's NSSDC Master Catalog

Two Line Element Set (TLE):
1 28256U 04010F   22142.95872455 -.00000136  00000-0  00000-0 0  9995
2 28256  11.9668  32.0758 0028838 344.1263 199.1735  1.00135808 65780
Source of the keplerian elements: AFSPC